When you browse on this site, cookies collect data to enhance your experience and personalize the content and advertising you see.
Visit our Privacy Policy to learn more. By continuing to use the site, you agree to this use of cookies and data.
  • în România
  • Lista ţărilor
  • Pe 7 zile
  • Temperatura apei
  • Hartă satelitară
  • Meteo pe hartă
  • Widget-uri
  • user-avatar
    Intrare

    Meteo pe oră la Ascheffel

    Astăzi, 16 Februarie, Sâmbătă

    Timp Temperatura Precipitaţii Vânt Presiune Umiditate
    00:00 +4°C° 0 mm 3 m/s 767 mmHg 79%
    01:00 +4°C° 0 mm 3 m/s 767 mmHg 81%
    02:00 +3°C° 0 mm 3 m/s 766 mmHg 82%
    03:00 +3°C° 0 mm 3 m/s 765 mmHg 83%
    04:00 +3°C° 0 mm 4 m/s 765 mmHg 84%
    05:00 +3°C° 0 mm 4 m/s 765 mmHg 84%
    06:00 +3°C° 0 mm 4 m/s 764 mmHg 84%
    07:00 +3°C° 0 mm 4 m/s 764 mmHg 84%
    08:00 +3°C° 0 mm 4 m/s 764 mmHg 82%
    09:00 +3°C° 0 mm 5 m/s 764 mmHg 80%
    10:00 +5°C° 0 mm 5 m/s 764 mmHg 77%
    11:00 +5°C° 0 mm 6 m/s 764 mmHg 75%
    12:00 +7°C° 0 mm 6 m/s 764 mmHg 73%
    13:00 +8°C° 0 mm 6 m/s 764 mmHg 71%
    14:00 +8°C° 0 mm 6 m/s 764 mmHg 73%
    15:00 +8°C° 0 mm 6 m/s 764 mmHg 75%
    16:00 +8°C° 0 mm 6 m/s 764 mmHg 77%
    17:00 +7°C° 0 mm 5 m/s 764 mmHg 82%
    18:00 +6°C° 0 mm 5 m/s 764 mmHg 88%
    19:00 +5°C° 0 mm 4 m/s 764 mmHg 93%
    20:00 +5°C° 0 mm 4 m/s 764 mmHg 94%
    21:00 +5°C° 0 mm 4 m/s 764 mmHg 94%
    22:00 +5°C° 0 mm 4 m/s 764 mmHg 95%
    23:00 +5°C° 0 mm 4 m/s 765 mmHg 95%

    Mâine, 17 Februarie, Duminică

    Timp Temperatura Precipitaţii Vânt Presiune Umiditate
    00:00 +6°C° 0 mm 4 m/s 765 mmHg 95%
    01:00 +6°C° 0 mm 4 m/s 765 mmHg 95%
    02:00 +7°C° 0 mm 3 m/s 765 mmHg 96%
    03:00 +7°C° 0 mm 3 m/s 764 mmHg 96%
    04:00 +7°C° 0 mm 3 m/s 764 mmHg 97%
    05:00 +7°C° 0 mm 3 m/s 764 mmHg 96%
    06:00 +7°C° 0 mm 2 m/s 764 mmHg 96%
    07:00 +6°C° 0 mm 2 m/s 764 mmHg 96%
    08:00 +7°C° 0 mm 2 m/s 764 mmHg 93%
    09:00 +7°C° 0 mm 2 m/s 764 mmHg 91%
    10:00 +7°C° 0 mm 3 m/s 764 mmHg 89%
    11:00 +8°C° 0 mm 3 m/s 764 mmHg 83%
    12:00 +9°C° 0 mm 3 m/s 764 mmHg 78%
    13:00 +10°C° 0 mm 3 m/s 764 mmHg 73%
    14:00 +10°C° 0 mm 3 m/s 763 mmHg 73%
    15:00 +10°C° 0 mm 3 m/s 763 mmHg 74%
    16:00 +10°C° 0 mm 3 m/s 762 mmHg 74%
    17:00 +9°C° 0 mm 3 m/s 762 mmHg 79%
    18:00 +8°C° 0 mm 3 m/s 762 mmHg 83%
    19:00 +5°C° 0 mm 3 m/s 762 mmHg 87%
    20:00 +5°C° 0 mm 3 m/s 762 mmHg 86%
    21:00 +5°C° 0 mm 3 m/s 762 mmHg 86%
    22:00 +4°C° 0 mm 3 m/s 762 mmHg 85%
    23:00 +4°C° 0 mm 3 m/s 762 mmHg 85%

    Poimâine, 18 Februarie, Luni

    Timp Temperatura Precipitaţii Vânt Presiune Umiditate
    00:00 +4°C° 0 mm 3 m/s 762 mmHg 85%
    01:00 +3°C° 0 mm 3 m/s 761 mmHg 85%
    02:00 +3°C° 0 mm 3 m/s 761 mmHg 87%
    03:00 +3°C° 0 mm 3 m/s 761 mmHg 89%
    04:00 +3°C° 0 mm 3 m/s 761 mmHg 90%
    05:00 +2°C° 0 mm 3 m/s 761 mmHg 91%
    06:00 +2°C° 0 mm 3 m/s 761 mmHg 92%
    07:00 +2°C° 0 mm 3 m/s 761 mmHg 92%
    08:00 +3°C° 0 mm 3 m/s 761 mmHg 88%
    09:00 +4°C° 0 mm 3 m/s 761 mmHg 84%
    10:00 +6°C° 0 mm 4 m/s 761 mmHg 80%
    11:00 +7°C° 0 mm 4 m/s 761 mmHg 77%
    12:00 +8°C° 0 mm 4 m/s 760 mmHg 73%
    13:00 +10°C° 0 mm 4 m/s 760 mmHg 69%
    14:00 +10°C° 0 mm 4 m/s 760 mmHg 70%
    15:00 +10°C° 0 mm 3 m/s 760 mmHg 71%
    16:00 +10°C° 0 mm 3 m/s 759 mmHg 72%
    17:00 +9°C° 0 mm 3 m/s 759 mmHg 78%
    18:00 +7°C° 0 mm 3 m/s 759 mmHg 84%
    19:00 +6°C° 0 mm 2 m/s 759 mmHg 90%
    20:00 +6°C° 0 mm 2 m/s 759 mmHg 91%
    21:00 +5°C° 0 mm 2 m/s 758 mmHg 91%
    22:00 +4°C° 0 mm 3 m/s 758 mmHg 92%
    23:00 +4°C° 0 mm 3 m/s 758 mmHg 92%

    19 Februarie, Marţi

    Timp Temperatura Precipitaţii Vânt Presiune Umiditate
    00:00 +4°C° 0 mm 3 m/s 758 mmHg 91%
    01:00 +4°C° 0 mm 3 m/s 757 mmHg 91%
    02:00 +4°C° 0 mm 3 m/s 757 mmHg 90%
    03:00 +4°C° 0 mm 3 m/s 757 mmHg 90%
    04:00 +4°C° 0 mm 3 m/s 756 mmHg 89%
    05:00 +4°C° 0.2 mm 4 m/s 756 mmHg 91%
    06:00 +4°C° 0.2 mm 4 m/s 756 mmHg 93%
    07:00 +3°C° 0.2 mm 5 m/s 756 mmHg 95%
    08:00 +5°C° 0.3 mm 4 m/s 756 mmHg 94%
    09:00 +5°C° 0.3 mm 4 m/s 756 mmHg 93%
    10:00 +5°C° 0.3 mm 4 m/s 757 mmHg 92%
    11:00 +6°C° 0.1 mm 5 m/s 757 mmHg 89%
    12:00 +7°C° 0.1 mm 6 m/s 757 mmHg 85%
    13:00 +7°C° 0.1 mm 6 m/s 757 mmHg 81%
    14:00 +7°C° 0.1 mm 6 m/s 757 mmHg 81%
    15:00 +7°C° 0.1 mm 6 m/s 758 mmHg 81%
    16:00 +5°C° 0.1 mm 6 m/s 758 mmHg 82%
    17:00 +5°C° 0 mm 5 m/s 758 mmHg 85%
    18:00 +3°C° 0 mm 5 m/s 759 mmHg 89%
    19:00 +3°C° 0 mm 4 m/s 759 mmHg 93%
    20:00 +2°C° 0 mm 5 m/s 759 mmHg 94%
    21:00 +2°C° 0 mm 5 m/s 760 mmHg 94%
    22:00 +2°C° 0 mm 5 m/s 760 mmHg 94%
    23:00 +2°C° 0 mm 5 m/s 760 mmHg 94%

    20 Februarie, Miercuri

    Timp Temperatura Precipitaţii Vânt Presiune Umiditate
    00:00 +2°C° 0 mm 5 m/s 760 mmHg 94%
    01:00 +2°C° 0 mm 5 m/s 760 mmHg 94%
    02:00 +1°C° 0 mm 5 m/s 760 mmHg 93%
    03:00 +1°C° 0 mm 5 m/s 760 mmHg 93%
    04:00 +1°C° 0 mm 5 m/s 760 mmHg 93%
    05:00 +1°C° 0 mm 5 m/s 760 mmHg 93%
    06:00 +1°C° 0 mm 5 m/s 760 mmHg 92%
    07:00 +1°C° 0 mm 5 m/s 760 mmHg 91%
    08:00 +2°C° 0.1 mm 5 m/s 760 mmHg 90%
    09:00 +3°C° 0.1 mm 6 m/s 760 mmHg 88%
    10:00 +3°C° 0.1 mm 6 m/s 760 mmHg 87%
    11:00 +4°C° 0.4 mm 7 m/s 760 mmHg 86%
    12:00 +4°C° 0.4 mm 7 m/s 760 mmHg 86%
    13:00 +4°C° 0.4 mm 7 m/s 760 mmHg 85%
    14:00 +4°C° 0.3 mm 7 m/s 760 mmHg 86%
    15:00 +4°C° 0.3 mm 7 m/s 759 mmHg 87%
    16:00 +4°C° 0.3 mm 7 m/s 759 mmHg 88%
    17:00 +4°C° 0.2 mm 7 m/s 759 mmHg 89%
    18:00 +4°C° 0.2 mm 7 m/s 759 mmHg 90%
    19:00 +5°C° 0.2 mm 7 m/s 760 mmHg 91%
    20:00 +5°C° 0.2 mm 7 m/s 760 mmHg 91%
    21:00 +5°C° 0.2 mm 7 m/s 760 mmHg 92%
    22:00 +5°C° 0.2 mm 7 m/s 760 mmHg 92%
    23:00 +5°C° 0.4 mm 7 m/s 760 mmHg 92%

    21 Februarie, Joi

    Timp Temperatura Precipitaţii Vânt Presiune Umiditate
    00:00 +5°C° 0.4 mm 7 m/s 760 mmHg 92%
    01:00 +5°C° 0.4 mm 6 m/s 761 mmHg 93%
    02:00 +4°C° 0 mm 6 m/s 761 mmHg 93%
    03:00 +4°C° 0 mm 6 m/s 761 mmHg 93%
    04:00 +4°C° 0 mm 6 m/s 761 mmHg 93%
    05:00 +4°C° 0.1 mm 6 m/s 761 mmHg 93%
    06:00 +5°C° 0.1 mm 5 m/s 761 mmHg 93%
    07:00 +6°C° 0.1 mm 5 m/s 761 mmHg 94%
    08:00 +6°C° 0.1 mm 5 m/s 761 mmHg 93%
    09:00 +6°C° 0.1 mm 5 m/s 762 mmHg 93%
    10:00 +6°C° 0.1 mm 4 m/s 762 mmHg 93%
    11:00 +7°C° 0.4 mm 4 m/s 762 mmHg 93%
    12:00 +7°C° 0.4 mm 4 m/s 762 mmHg 93%
    13:00 +8°C° 0.4 mm 3 m/s 762 mmHg 92%
    14:00 +8°C° 0 mm 3 m/s 763 mmHg 92%
    15:00 +8°C° 0 mm 3 m/s 763 mmHg 91%
    16:00 +8°C° 0 mm 3 m/s 763 mmHg 90%
    17:00 +8°C° 0 mm 3 m/s 763 mmHg 91%
    18:00 +7°C° 0 mm 2 m/s 764 mmHg 93%
    19:00 +6°C° 0 mm 2 m/s 764 mmHg 95%
    20:00 +6°C° 0 mm 2 m/s 764 mmHg 96%
    21:00 +5°C° 0 mm 2 m/s 765 mmHg 96%
    22:00 +5°C° 0 mm 2 m/s 765 mmHg 97%
    23:00 +5°C° 0 mm 2 m/s 765 mmHg 97%
    Arată mai mult